SV2RIM-2 Weather Reports


time (UTC)temp
F
wind
direction
speed
knots
gust
knots
rain 1hr
in
rain 24hr
in
rain mn
in
humidity
%
barometer
mb
20260509041019 55 324 1.7 4.3 0.00 0.48 0.00 88 1014.8
20260509040019 54 343 1.7 3.5 0.00 0.48 0.00 88 1014.7
20260509035019 54 334 1.7 3.5 0.00 0.48 0.00 88 1014.7
20260509034019 54 343 0.9 2.6 0.00 0.48 0.00 88 1014.7
20260509033019 54 283 0.9 2.6 0.00 0.48 0.00 89 1014.7
20260509032019 54 340 1.7 3.5 0.00 0.48 0.00 88 1014.6
20260509031019 54 327 1.7 3.5 0.00 0.48 0.00 89 1014.6
20260509030019 54 315 0.9 2.6 0.00 0.48 0.00 89 1014.7
20260509025019 54 340 1.7 3.5 0.00 0.48 0.00 89 1014.7
20260509024019 54 247 0.0 1.7 0.00 0.48 0.00 89 1014.8
20260509023019 54 341 0.9 3.5 0.00 0.48 0.00 89 1014.7
20260509022019 54 221 0.0 1.7 0.00 0.48 0.00 89 1014.8
20260509021019 54 331 0.9 1.7 0.00 0.48 0.00 89 1014.8
20260509020019 54 0.0 0.0 0.00 0.48 0.00 89 1014.8
20260509015019 55 348 2.6 4.3 0.00 0.48 0.00 89 1014.8
20260509014019 54 0.0 0.0 0.00 0.48 0.00 89 1015.0
20260509013019 54 244 0.0 1.7 0.00 0.48 0.00 89 1015.1
20260509012019 54 303 0.0 0.9 0.00 0.48 0.00 89 1015.1
20260509011019 54 0.0 0.0 0.00 0.48 0.00 89 1015.2
20260509010019 54 253 0.9 2.6 0.00 0.48 0.00 89 1015.2
20260509005019 55 0.0 0.0 0.00 0.48 0.00 89 1015.2
20260509004019 55 0.0 0.0 0.00 0.48 0.00 89 1015.3
20260509003019 55 252 0.0 0.9 0.00 0.48 0.00 88 1015.3
20260509002019 54 351 0.9 2.6 0.00 0.48 0.00 88 1015.3
20260509001019 54 0.0 0.0 0.00 0.48 0.00 88 1015.4
20260509000019 54 331 0.9 3.5 0.00 0.48 0.00 88 1015.5
20260508235019 54 337 0.9 2.6 0.00 0.48 0.00 88 1015.6
20260508234019 54 235 0.0 1.7 0.00 0.48 0.00 87 1015.6
20260508233019 54 253 0.9 2.6 0.00 0.48 0.00 86 1015.7
20260508232019 54 258 1.7 2.6 0.00 0.48 0.00 86 1015.7
20260508231019 54 325 2.6 4.3 0.00 0.48 0.00 87 1015.7
20260508230019 54 301 1.7 3.5 0.00 0.48 0.00 87 1015.7
20260508225019 54 335 2.6 6.1 0.00 0.48 0.00 87 1015.8
20260508224019 54 306 2.6 4.3 0.00 0.48 0.00 86 1015.7
20260508223019 54 323 2.6 5.2 0.00 0.48 0.00 87 1015.7
20260508222019 54 344 2.6 5.2 0.00 0.48 0.00 87 1015.8
20260508221019 54 331 2.6 4.3 0.00 0.48 0.00 86 1015.9
20260508220019 54 348 3.5 6.1 0.00 0.48 0.00 87 1016.0
20260508215019 54 320 2.6 3.5 0.00 0.48 0.00 87 1016.0
20260508214019 54 322 1.7 3.5 0.00 0.48 0.00 87 1016.1
20260508213019 54 317 2.6 5.2 0.01 0.48 0.00 87 1016.1
20260508212019 54 336 2.6 5.2 0.01 0.48 0.00 87 1016.1
20260508211019 54 311 1.7 2.6 0.01 0.48 0.00 87 1016.3
20260508210019 54 345 2.6 5.2 0.01 0.48 0.00 87 1016.4
20260508205019 54 323 1.7 4.3 0.01 0.48 0.48 87 1016.5
20260508204019 54 338 1.7 3.5 0.01 0.48 0.48 87 1016.5
20260508203019 54 302 0.9 2.6 0.00 0.47 0.47 88 1016.6
20260508202019 54 304 1.7 3.5 0.00 0.47 0.47 88 1016.6
20260508201019 54 327 0.9 2.6 0.01 0.47 0.47 88 1016.6
20260508200019 54 319 0.9 2.6 0.01 0.47 0.47 88 1016.6
20260508195019 54 245 0.9 1.7 0.02 0.47 0.47 88 1016.5
20260508194019 54 323 0.9 2.6 0.03 0.47 0.47 88 1016.4
20260508193019 54 298 0.9 2.6 0.04 0.47 0.47 88 1016.3
20260508192019 54 235 0.9 1.7 0.04 0.47 0.47 87 1016.3
20260508191019 54 323 1.7 3.5 0.04 0.46 0.46 87 1016.2
20260508190019 54 318 1.7 4.3 0.05 0.46 0.46 87 1016.1
20260508185019 54 326 1.7 3.5 0.04 0.45 0.45 86 1016.2
20260508184019 54 326 1.7 4.3 0.04 0.44 0.44 87 1016.0
20260508183019 54 327 1.7 4.3 0.03 0.43 0.43 87 1015.9
20260508182019 55 337 2.6 4.3 0.04 0.43 0.43 87 1015.8
20260508181019 55 311 1.7 3.5 0.03 0.42 0.42 87 1015.7
20260508180019 55 326 0.9 2.6 0.03 0.41 0.41 87 1015.5
20260508175019 55 291 0.9 1.7 0.04 0.41 0.41 88 1015.4
20260508174019 55 238 0.9 1.7 0.04 0.40 0.40 88 1015.2
20260508173019 55 332 0.0 1.7 0.07 0.40 0.40 88 1015.2
20260508172019 55 0.0 0.0 0.07 0.39 0.39 88 1015.0
20260508171019 55 339 0.9 2.6 0.07 0.39 0.39 87 1015.2
20260508170019 55 314 0.9 1.7 0.07 0.37 0.37 88 1015.1
20260508165019 55 338 0.9 1.7 0.05 0.36 0.36 88 1015.1
20260508164019 55 302 0.9 2.6 0.05 0.35 0.35 88 1015.3
20260508163019 55 323 0.9 2.6 0.04 0.33 0.33 88 1015.3
20260508162019 55 0.0 0.0 0.03 0.32 0.32 88 1015.3
20260508161019 56 180 0.0 0.0 0.04 0.32 0.32 87 1015.3
20260508160019 56 0.0 0.0 0.03 0.31 0.31 88 1015.3
20260508155019 56 0.0 0.0 0.03 0.31 0.31 88 1015.3
20260508154019 56 0.0 0.0 0.03 0.30 0.30 87 1015.2
20260508153019 56 210 0.0 1.7 0.04 0.29 0.29 88 1015.2
20260508152019 56 230 0.9 2.6 0.05 0.29 0.29 88 1015.2
20260508151019 56 216 0.0 0.9 0.05 0.27 0.27 88 1015.2
20260508150019 56 0.0 0.0 0.05 0.27 0.27 86 1015.2
20260508145018 57 203 0.0 1.7 0.08 0.27 0.27 86 1015.1
20260508144019 56 315 0.0 0.0 0.07 0.26 0.26 85 1014.9
20260508143019 56 207 0.0 0.9 0.04 0.24 0.24 86 1015.4
20260508142019 56 279 0.0 0.0 0.03 0.23 0.23 86 1015.0
20260508141019 56 186 0.0 0.9 0.02 0.22 0.22 86 1015.2
20260508140019 57 0.0 0.0 0.02 0.22 0.22 86 1015.1
20260508135019 57 0.0 0.0 0.01 0.20 0.20 86 1015.4
20260508134019 57 242 0.9 2.6 0.02 0.20 0.20 86 1015.8
20260508133019 57 208 0.9 1.7 0.02 0.20 0.20 86 1015.5
20260508132019 57 199 0.9 1.7 0.03 0.20 0.20 87 1015.6
20260508131019 57 196 0.9 1.7 0.03 0.20 0.20 88 1015.7
20260508130019 58 206 0.0 0.9 0.03 0.20 0.20 87 1015.7
20260508125019 58 182 0.0 0.9 0.03 0.19 0.19 86 1016.0
20260508124019 59 247 0.0 0.9 0.02 0.18 0.18 84 1015.9
20260508123019 59 199 0.9 1.7 0.04 0.18 0.18 84 1016.3
20260508122018 58 201 0.9 1.7 0.04 0.17 0.17 85 1016.1
20260508121019 58 202 0.0 0.9 0.04 0.17 0.17 85 1016.2
20260508120019 59 196 0.9 2.6 0.04 0.17 0.17 84 1016.3
20260508115018 59 197 0.9 3.5 0.04 0.15 0.15 83 1016.3
20260508114019 59 179 0.9 1.7 0.04 0.15 0.15 83 1016.4
20260508113018 59 200 1.7 2.6 0.03 0.13 0.13 84 1016.6
20260508112018 60 228 0.9 3.5 0.02 0.12 0.12 83 1016.4
20260508111018 61 263 1.7 2.6 0.02 0.12 0.12 82 1016.5
20260508110019 61 280 1.7 3.5 0.03 0.12 0.12 81 1016.6
20260508105019 60 251 1.7 3.5 0.03 0.11 0.11 82 1016.8
20260508104019 60 328 2.6 6.1 0.04 0.11 0.11 81 1016.8
20260508103018 60 303 1.7 3.5 0.03 0.10 0.10 80 1017.0
20260508102019 59 305 3.5 6.1 0.04 0.10 0.10 80 1017.3
20260508101019 59 307 3.5 7.0 0.04 0.10 0.10 79 1017.6
20260508100019 59 321 2.6 4.3 0.04 0.10 0.09 78 1017.7
20260508095019 59 256 1.7 4.3 0.04 0.09 0.08 76 1017.9
20260508094019 58 241 4.3 7.8 0.05 0.09 0.07 75 1018.1
20260508093019 58 259 5.2 8.7 0.05 0.09 0.07 76 1018.1
20260508092019 58 257 5.2 8.7 0.05 0.08 0.05 76 1018.0
20260508091019 58 252 5.2 8.7 0.05 0.08 0.05 77 1018.0
20260508090019 59 251 5.2 9.6 0.04 0.08 0.04 76 1017.8
20260508085019 59 250 5.2 9.6 0.03 0.07 0.03 80 1017.6
20260508084018 60 236 2.6 6.1 0.01 0.04 0.01 79 1017.4
20260508083019 60 248 4.3 7.8 0.01 0.05 0.01 79 1017.4
20260508082019 61 240 4.3 7.8 0.00 0.04 0.00 81 1017.3
20260508081018 62 269 3.5 6.1 0.00 0.04 0.00 82 1017.2
20260508080018 63 294 1.7 4.3 0.00 0.04 0.00 81 1017.1
20260508075018 63 206 0.9 1.7 0.00 0.04 0.00 79 1017.2
20260508074019 63 207 0.9 1.7 0.00 0.04 0.00 79 1017.1
20260508073019 63 200 1.7 2.6 0.00 0.04 0.00 78 1017.0
20260508072019 62 316 2.6 6.1 0.00 0.04 0.00 80 1016.9
20260508071019 62 243 3.5 6.1 0.00 0.04 0.00 81 1016.9
20260508070019 63 226 0.9 0.9 0.00 0.04 0.00 79 1016.9
20260508065019 62 308 0.9 3.5 0.00 0.04 0.00 79 1016.9
20260508064018 62 299 1.7 3.5 0.00 0.04 0.00 79 1017.0
20260508063019 61 324 2.6 3.5 0.00 0.04 0.00 80 1017.0
20260508062019 61 336 1.7 3.5 0.00 0.04 0.00 81 1017.0
20260508061019 61 294 0.9 2.6 0.00 0.04 0.00 79 1016.8
20260508060018 60 296 0.9 2.6 0.00 0.04 0.00 80 1016.7
20260508055019 59 257 0.9 1.7 0.00 0.04 0.00 81 1016.7
20260508054019 58 342 1.7 3.5 0.00 0.04 0.00 81 1016.5
20260508053019 58 315 1.7 4.3 0.00 0.04 0.00 80 1016.4
20260508052018 58 304 1.7 3.5 0.00 0.04 0.00 80 1016.4
20260508051018 58 326 2.6 4.3 0.00 0.04 0.00 80 1016.3
20260508050019 57 340 2.6 4.3 0.00 0.04 0.00 80 1016.1
20260508045019 57 326 3.5 4.3 0.00 0.04 0.00 80 1016.1
20260508044019 57 338 3.5 7.0 0.00 0.04 0.00 80 1015.9
20260508043019 56 322 2.6 5.2 0.00 0.04 0.00 80 1016.0
20260508042019 56 344 4.3 6.1 0.00 0.04 0.00 82 1015.9